DMSP 5D-2 F13 DEB, 42267

Orbit data source: Space-Track

DMSP 5D-2 F13 DEB, 42267 is space debris in SSO originally from a launch on Fri, 24 Mar 1995 UTC launched from the Air Force Western Test Range (AFWTR). Debris objects in space refer to the collection of defunct objects orbiting the Earth. Examples of debris include non-operational satellites, rocket bodies, and fragments generated from explosions, collisions, or faulty payload assembly.

Loading next visibility...
Identifier
42267, 1995-015GH
Orbit
SSO
Country
Flag of USUS
Related business
Manufacturer
Unknown
Mission
Spacecraft
Bus & Motor
Unknown
Mass
Unknown
Launch date (UTC)
1995-03-24 (31 years ago)
Launch vehicle
Unknown
Launch site
Air Force Western Test Range (AFWTR)
Object type
Payload
Rocket body
Debris
Shape & HBR
Unknown shape, 0.1 m
Radar Cross Section
Small (<0.1 m²)

Expand to show TLE details & history
Last TLE update: 3 days ago

TLE from 3 days ago
0 DMSP 5D-2 F13 DEB
1 42267U 95015GH  25308.47014563  .00006297  00000-0  30458-2 0  9995
2 42267  98.7335 193.2770 0078839 130.9633 229.8399 14.17204458539013
Epoch: 2025-11-04T11:17Z
TLE epoch observation values (Epoch: 2025-11-04T11:17:00.582Z)
Latitude
-0.00002°
Longitude
-19.93213°
Altitude
874.675 km
Speed
7.396 km/s
True Right ascension
12h 53m 06s
True Declination
0° 00' 00"
Sunlit
Object was in daylight at epoch
Visualization orbit readout
Latitude
Unknown
Longitude
Unknown
Altitude
Unknown
Speed
Unknown
Apparent Right ascension
Unknown
Apparent Declination
Unknown
Sunlit
N/A
Visualization observer readout
Local Sidereal Time
02:06:45
Azimuth
Unknown
Elevation
Unknown
Doppler factor
Unknown
Orbital elements
Apogee altitude
888.83 km
Perigee altitude
775.142 km
Semi-major axis
7,210.123 km
Eccentricity
0.00788
Inclination
98.7335°
RAAN
193.277°
Arg. of periapsis
130.9633°
True anomaly
229.15384°
Mean anomaly
229.8399°
Eccentric anomaly
229.49643°
Mean motion
3.54511 °/min
Orbital period
101.55 mins
BSTAR
0.0030458
Loading maneuver chart data...
Computing Atmospheric mass density...

Documentation

Showing up to 5 results
|